Location: Canoa Quebrada
(4.5167°S, 37.7000°W)
Time: 06:54:07
(UTC+00:00)

Daily predictions for brighter satellites

Satellite Brightness Start Highest point End
(mag) Time Altitude Azimuth Time Altitude Azimuth Time Altitude Azimuth
Maqsat-H 4.3 19:53:31 10° WNW 19:58:54 41° NNE 20:24:45 10° E
ARIANE 5 DEB (SYLDA 5A) 4.2 20:29:25 10° W 20:33:32 75° N 20:59:38 10° E
Sylda 5 2.6 20:31:46 10° W 20:35:12 84° N 20:44:02 10° E
Ariane H10+ 3.7 20:34:52 10° NW 20:38:31 36° NNE 20:45:32 10° ENE
GPS 2-12 Rocket1 4.2 20:39:17 10° SW 20:43:40 37° SSE 20:48:06 10° E
ATLAS 2AS CENTAUR R/B 3.4 20:43:44 10° S 20:50:21 40° ESE 20:57:26 10° NE
Cosmos 1606 2.7 20:47:48 10° S 20:51:39 88° ESE 20:55:26 10° N
GPS 2-14 Rocket1 3.1 20:50:54 10° W 20:54:38 58° SSW 20:58:25 10° ESE
ADEOS Rocket 3.8 20:52:17 10° NE 20:56:44 25° ESE 21:01:09 10° SSE
Cosmos 1862 3.3 20:52:52 10° N 20:56:50 65° E 21:00:50 10° SSE
Cosmos 1782 3.7 20:53:36 10° SSE 20:57:09 30° E 21:00:41 10° NNE
Cosmos 1048 Rocket 4.3 20:52:18 10° S 20:57:16 46° ESE 21:02:15 10° NNE
Okean-O 2.8 20:54:07 10° S 20:58:34 81° WSW 21:02:59 10° NNW
ARIANE 5 DEB (SYLDA) 1.9 20:58:13 10° WNW 21:00:28 37° N 21:01:45 16° ENE
Cosmos 1470 Rocket 4.4 20:56:56 10° NNE 21:00:47 29° E 21:04:37 10° SSE
Atlas Centaur 2 3.1 20:53:30 10° WSW 21:02:06 87° NNW 21:09:09 13° NE
ARIANE 44L R/B 4.1 20:59:04 10° WNW 21:03:08 17° NNW 21:05:16 10° NNE
CSL-04 Rocket 4.2 21:03:41 10° SE 21:08:40 36° ENE 21:13:33 10° NNE
Cosmos 468 4.5 21:05:29 10° S 21:10:47 83° ESE 21:16:05 10° NNE
Cosmos 1400 Rocket 2.9 21:07:30 10° S 21:11:32 80° W 21:15:35 10° N
Cosmos 2360 Rocket 2.3 21:10:05 10° S 21:15:34 54° ESE 21:20:52 11° NNE
Meteor 2-11 Rocket 4.4 21:10:43 10° N 21:16:50 77° E 21:23:00 10° S
SL-16 R/B 3.4 21:12:12 10° SW 21:17:33 44° WNW 21:22:54 10° N
COSMOS 2455 3.4 21:11:40 10° SSW 21:17:35 60° WNW 21:23:29 10° N
Skynet4D Del rocket 3.5 21:14:29 10° NW 21:20:15 67° NNE 21:24:57 13° ESE
ARIANE 5 R/B 2.1 21:20:56 10° NW 21:22:17 15° N 21:22:18 15° N
Cosmos 2322 Rocket 3.3 21:20:54 10° SW 21:26:11 43° WNW 21:31:27 10° N
CZ-2C R/B 3.9 21:22:57 12° NNE 21:27:15 55° ESE 21:31:52 10° S
Star 37E S/N 40089 4.3 21:28:50 10° NW 21:30:55 60° NE 21:34:34 16° ESE
CZ-4 R/B 2.0 21:30:44 10° S 21:34:55 62° WSW 21:39:04 10° NNW
Cosmos 1269 Rocket 4.3 21:30:04 10° S 21:35:08 46° ESE 21:37:31 28° NE
SeaSat 1 2.5 21:33:56 10° SE 21:38:45 54° ENE 21:43:31 10° N
Cosmos 2084 4.1 21:35:28 10° NW 21:39:29 54° WSW 21:43:32 10° SSE
Cosmos 1939 Rocket 2.8 21:40:09 10° SSE 21:44:13 60° ENE 21:46:15 28° N
Cosmos 1707 Rocket 3.4 21:40:02 10° S 21:44:22 84° E 21:46:54 25° N
Cosmos 494 Rocket 3.8 21:40:27 10° S 21:45:38 79° ESE 21:48:32 27° NNE
Cosmos 2333 4.4 21:42:06 10° S 21:47:28 46° ESE 21:48:48 39° ENE
CZ-3A R/B 4.4 20:20:24 10° WNW 21:52:15 72° NNE 21:59:10 27° E
Meteor 1-27 Rocket 4.1 21:48:05 10° SSE 21:53:01 38° E 21:53:01 38° E
Cosmos 2297 Rocket 3.7 21:48:35 10° NW 21:53:46 38° WSW 21:58:58 10° S
Cosmos 2227 Rocket 3.5 21:48:47 10° NW 21:54:03 41° WSW 21:59:21 10° S
Cosmos 2322 3.6 21:48:38 10° S 21:54:20 72° ESE 21:56:26 40° NNE
Cosmos 1634 Rocket 3.8 21:51:00 10° N 21:57:07 71° E 22:03:17 10° S
Cosmos 2333 Rocket 2.7 21:56:27 10° S 22:01:28 41° ESE 22:01:28 41° ESE
NOSS 3-4 (A) 3.5 21:57:39 10° SSW 22:03:52 72° WNW 22:06:33 34° N
NOSS 3-4 (C) 3.5 21:57:44 10° SSW 22:03:58 73° WNW 22:06:36 35° N
Cosmos 2142 Rocket 4.4 22:03:04 39° NNE 22:05:16 60° E 22:11:24 10° SSE
YAOGAN 1 4.3 22:01:36 10° SSW 22:05:28 33° WSW 22:09:21 10° NW
Cosmos 2219 Rocket 2.6 22:01:24 10° S 22:06:08 43° ESE 22:06:08 43° ESE
Cosmos 1315 Rocket 4.4 22:08:02 10° SSW 22:11:35 32° W 22:13:14 23° NW
Nadezhda 4 Rocket 3.8 22:06:20 10° S 22:12:32 84° E 22:14:36 45° N
GPS 2-17 Rocket1 3.8 22:09:09 10° WNW 22:12:13 41° NW 22:12:13 41° NW
FALCON 9 R/B 3.0 22:14:52 10° WSW 22:17:11 23° S 22:19:54 16° SE
Cosmos 2279 Rocket 4.1 22:18:47 56° ESE 22:18:47 56° ESE 22:24:09 10° SSE
ARIANE 42L R/B 3.9 22:07:04 10° W 22:18:14 40° NNW 22:18:23 40° N
ATLAS 5 CENTAUR R/B 3.5 22:17:52 10° NW 22:24:36 50° WSW 22:31:27 10° S
CZ-2C R/B 4.5 22:28:20 19° SSE 22:28:20 19° SSE 22:29:54 10° S
Ariane Rocket 3.1 22:20:38 10° S 22:25:44 71° WSW 22:26:02 69° WNW
GPS 2-12 Rocket1 3.9 22:22:29 10° WSW 22:26:05 49° W 22:26:05 49° W
BLOCK DM-SL 4.1 22:38:46 10° W 22:44:44 86° N 22:45:20 77° ENE
Ariane H10+ 4.4 22:44:15 10° WNW 22:50:17 61° NNW 22:50:17 61° NNW
Atlas Centaur 2 4.2 22:45:21 10° W 22:51:38 25° NW 22:51:47 25° NNW
COSMOS 2428 3.7 22:47:50 10° SSW 22:52:01 44° WSW 22:52:01 44° WSW
Cosmos 2237 Rocket 4.4 22:57:14 10° S 22:58:19 16° S 22:58:19 16° S
